This is the latest recevied weather packets stored in our database for station/object W5ADC. If no packets are shown the sender has not sent any weather packets the latest 10 day(s).
| Time | Temp. | Humidity | Pressure | Rain* | Wind** | Luminosity | Snow |
|---|---|---|---|---|---|---|---|
| 1777677928 | 17.78° C | 62% | 1011.8 hPa | 0 mm | - | 94 W/m² | - |
| 1777677626 | 17.78° C | 62% | 1011.6 hPa | 0 mm | - | 82 W/m² | - |
| 1777677324 | 17.78° C | 62% | 1011.6 hPa | 0 mm | - | 96 W/m² | - |
| 1777677022 | 17.78° C | 61% | 1011.7 hPa | 0 mm | - | 109 W/m² | - |
| 1777676720 | 17.78° C | 61% | 1011.4 hPa | 0 mm | - | 100 W/m² | - |
| 1777676418 | 17.78° C | 61% | 1011.6 hPa | 0 mm | - | 86 W/m² | - |
| 1777676115 | 17.78° C | 61% | 1011.7 hPa | 0 mm | - | 83 W/m² | - |
| 1777675811 | 17.78° C | 60% | 1011.7 hPa | 0 mm | - | 95 W/m² | - |
| 1777675509 | 17.78° C | 61% | 1011.8 hPa | 0 mm | - | 103 W/m² | - |
| 1777675205 | 17.78° C | 61% | 1011.5 hPa | 0 mm | - | 104 W/m² | - |
| 1777674902 | 17.78° C | 61% | 1011.4 hPa | 0 mm | - | 124 W/m² | - |
| 1777674598 | 17.78° C | 60% | 1011.6 hPa | 0 mm | - | 131 W/m² | - |
| 1777674295 | 17.78° C | 61% | 1011.6 hPa | 0 mm | - | 124 W/m² | - |
| 1777673991 | 17.78° C | 60% | 1011.6 hPa | 0 mm | - | 133 W/m² | - |
| 1777673688 | 17.78° C | 60% | 1011.5 hPa | 0 mm | - | 140 W/m² | - |
| 1777673386 | 17.78° C | 59% | 1011.4 hPa | 0 mm | - | 138 W/m² | - |
| 1777673084 | 18.33° C | 59% | 1011.4 hPa | 0 mm | - | 152 W/m² | - |
| 1777672779 | 18.33° C | 59% | 1011.7 hPa | 0 mm | - | 164 W/m² | - |
| 1777672476 | 18.33° C | 58% | 1011.6 hPa | 0 mm | - | 167 W/m² | - |
| 1777672172 | 17.78° C | 59% | 1011.7 hPa | 0 mm | - | 159 W/m² | - |
| 1777671867 | 17.78° C | 59% | 1011.6 hPa | 0 mm | - | 156 W/m² | - |
| 1777671562 | 17.78° C | 58% | 1011.5 hPa | 0 mm | - | 171 W/m² | - |
| 1777671261 | 17.78° C | 59% | 1011.7 hPa | 0 mm | - | 187 W/m² | - |
| 1777670955 | 17.78° C | 60% | 1011.5 hPa | 0 mm | - | 160 W/m² | - |
| 1777670652 | 17.78° C | 58% | 1011.7 hPa | 0 mm | - | 185 W/m² | - |
* Rain latest hour (hover to see other rain measurements)
** Current wind speed in m/s (hover to see current wind gust speed)